FW3835 Weather Reports


Display with metric or nautical units.
time (UTC)temp
F
wind
direction
speed
MPH
gust
MPH
rain 1hr
in
rain 24hr
in
rain mn
in
humidity
%
barometer
mb
20260903010032 67 65 0.0 2.0 0.00 0.00 0.00 58 1013.2
20260903004526 69 65 0.0 2.0 0.00 0.00 0.00 55 1013.3
20260903003037 70 65 0.0 2.0 0.00 0.00 0.00 54 1013.1
20260903001531 71 67 0.0 2.0 0.00 0.00 0.00 53 1013.2
20260903000017 72 65 0.0 2.0 0.00 0.00 0.00 52 1013.1
20260902234526 73 67 1.0 4.0 0.00 0.00 0.00 49 1013.2
20260902233028 74 69 1.0 5.0 0.00 0.00 0.00 48 1013.3
20260902231532 74 54 1.0 6.0 0.00 0.00 0.00 47 1013.3
20260902230013 75 11 2.0 4.0 0.00 0.00 0.00 46 1013.2
20260902224532 76 61 1.0 5.0 0.00 0.00 0.00 44 1013.2
20260902223025 77 60 2.0 6.0 0.00 0.00 0.00 44 1013.2
20260902221537 78 72 1.0 9.0 0.00 0.00 0.00 44 1013.2
20260902220050 78 323 2.0 6.0 0.00 0.00 0.00 42 1013.2
20260902214515 77 319 1.0 5.0 0.00 0.00 0.00 42 1013.4
20260902213023 78 71 2.0 5.0 0.00 0.00 0.00 40 1013.5
20260902211530 77 281 2.0 8.0 0.00 0.00 0.00 41 1013.5
20260902210031 78 303 2.0 5.0 0.00 0.00 0.00 41 1013.5
20260902204532 78 59 1.0 8.0 0.00 0.00 0.00 39 1013.7
20260902203018 77 317 0.0 3.0 0.00 0.00 0.00 41 1013.7
20260902201541 78 313 2.0 7.0 0.00 0.00 0.00 40 1013.8
20260902200030 77 107 1.0 6.0 0.00 0.00 0.00 39 1013.8
20260902194525 77 74 3.0 6.0 0.00 0.00 0.00 42 1014.0
20260902193035 77 97 1.0 7.0 0.00 0.00 0.00 42 1014.0
20260902191526 77 65 1.0 5.0 0.00 0.00 0.00 42 1014.0
20260902190026 77 280 2.0 8.0 0.00 0.00 0.00 41 1014.2
20260902184528 77 32 1.0 5.0 0.00 0.00 0.00 41 1014.2
20260902183011 75 65 3.0 7.0 0.00 0.00 0.00 42 1014.3
20260902181516 75 273 1.0 6.0 0.00 0.00 0.00 42 1014.4
20260902180028 76 65 4.0 7.0 0.00 0.00 0.00 42 1014.5
20260902174530 76 65 1.0 9.0 0.00 0.00 0.00 46 1014.8
20260902173030 75 360 1.0 6.0 0.00 0.00 0.00 46 1015.0
20260902171517 76 62 1.0 6.0 0.00 0.00 0.00 48 1015.1
20260902170022 75 315 3.0 7.0 0.00 0.00 0.00 47 1015.1
20260902164533 74 57 2.0 4.0 0.00 0.00 0.00 50 1015.1
20260902163007 74 63 1.0 6.0 0.00 0.00 0.00 45 1015.0
20260902161512 73 46 3.0 8.0 0.00 0.00 0.00 50 1015.0
20260902160016 73 288 2.0 7.0 0.00 0.00 0.00 51 1014.9
20260902154524 72 167 3.0 5.0 0.00 0.00 0.00 59 1015.0
20260902153044 71 178 2.0 4.0 0.00 0.00 0.00 59 1015.2
20260902151508 70 182 1.0 3.0 0.00 0.00 0.00 64 1015.1
20260902150011 69 192 1.0 4.0 0.00 0.00 0.00 67 1015.0
20260902144517 69 360 1.0 3.0 0.00 0.00 0.00 69 1015.0
20260902143026 67 352 1.0 4.0 0.00 0.00 0.00 71 1015.0
20260902141529 66 331 1.0 5.0 0.00 0.00 0.00 75 1014.9
20260902140014 64 331 1.0 3.0 0.00 0.00 0.00 80 1014.9
20260902134514 62 330 1.0 3.0 0.00 0.00 0.00 82 1014.9
20260902133023 60 330 0.0 2.0 0.00 0.00 0.00 83 1015.2
20260902131538 58 330 0.0 0.0 0.00 0.00 0.00 83 1015.0
20260902130030 55 330 0.0 0.0 0.00 0.00 0.00 82 1015.1
20260902124514 54 330 0.0 0.0 0.00 0.00 0.00 82 1015.1
20260902123018 53 330 0.0 0.0 0.00 0.00 0.00 82 1014.9
20260902121527 52 329 0.0 0.0 0.00 0.00 0.00 82 1014.9
20260902120028 52 330 0.0 0.0 0.00 0.00 0.00 82 1014.7
20260902114529 52 330 0.0 0.0 0.00 0.00 0.00 82 1014.5
20260902113013 52 330 0.0 0.0 0.00 0.00 0.00 82 1014.5
20260902111518 53 330 0.0 0.0 0.00 0.00 0.00 81 1014.5
20260902110038 53 360 0.0 0.0 0.00 0.00 0.00 82 1014.5
20260902104530 53 330 0.0 0.0 0.00 0.00 0.00 81 1014.5
20260902103031 53 330 0.0 0.0 0.00 0.00 0.00 81 1014.8
20260902101515 53 330 0.0 0.0 0.00 0.00 0.00 81 1014.7
20260902100025 53 330 0.0 0.0 0.00 0.00 0.00 81 1014.8
20260902094530 54 360 0.0 0.0 0.00 0.00 0.00 81 1014.4
20260902093037 54 330 0.0 0.0 0.00 0.00 0.00 81 1014.2
20260902091531 54 330 0.0 0.0 0.00 0.00 0.00 81 1014.0
20260902090023 54 360 0.0 0.0 0.00 0.00 0.00 80 1013.8
20260902084526 54 330 0.0 0.0 0.00 0.00 0.00 80 1013.8
20260902083028 54 329 0.0 0.0 0.00 0.00 0.00 79 1013.8
20260902081533 54 330 0.0 0.0 0.00 0.00 0.00 79 1013.8
20260902080024 55 330 0.0 0.0 0.00 0.00 0.00 78 1013.9
20260902080015 55 330 0.0 0.0 0.00 0.00 0.00 78 1013.8
20260902074508 55 330 0.0 0.0 0.00 0.00 0.00 78 1013.8
20260902073006 55 330 0.0 0.0 0.00 0.00 0.00 77 1014.0
20260902071509 56 329 0.0 0.0 0.00 0.00 0.00 77 1014.0
20260902070013 56 360 0.0 0.0 0.00 0.00 0.00 76 1014.3
20260902064508 57 330 0.0 0.0 0.00 0.00 0.00 75 1014.3
20260902063011 56 330 0.0 0.0 0.00 0.00 0.00 73 1014.2
20260902061520 56 330 0.0 0.0 0.00 0.00 0.00 72 1014.2
20260902060012 57 329 0.0 0.0 0.00 0.00 0.00 70 1014.0
20260902054517 57 360 0.0 1.0 0.00 0.00 0.00 69 1014.1
20260902053014 57 327 0.0 2.0 0.00 0.00 0.00 69 1014.1
20260902051512 58 328 0.0 0.0 0.00 0.00 0.00 68 1014.1
20260902050007 58 329 0.0 0.0 0.00 0.00 0.00 67 1014.0
20260902044510 59 330 0.0 0.0 0.00 0.00 0.00 67 1014.1
20260902043016 59 330 0.0 0.0 0.00 0.00 0.00 67 1014.3
20260902041515 59 330 0.0 0.0 0.00 0.00 0.00 67 1014.3
20260902040016 59 330 0.0 0.0 0.00 0.00 0.00 67 1014.1
20260902034507 59 330 0.0 0.0 0.00 0.00 0.00 68 1014.1
20260902033014 59 329 0.0 0.0 0.00 0.00 0.00 68 1014.1
20260902031518 59 330 0.0 0.0 0.00 0.00 0.00 67 1014.2
20260902030016 60 330 0.0 0.0 0.00 0.00 0.00 67 1014.0
20260902024516 60 330 0.0 0.0 0.00 0.00 0.00 67 1014.1
20260902023008 60 330 0.0 0.0 0.00 0.00 0.00 67 1014.1
20260902021513 61 330 0.0 0.0 0.00 0.00 0.00 66 1014.0
20260902020016 62 330 0.0 0.0 0.00 0.00 0.00 65 1013.9
20260902014516 62 330 0.0 0.0 0.00 0.00 0.00 63 1013.8
20260902013017 63 330 0.0 0.0 0.00 0.00 0.00 62 1013.6
20260902011517 64 330 0.0 0.0 0.00 0.00 0.00 60 1013.6